Elk Grove Village, Illinois, United States (60007)
Lat: 42.00N, Lon: 87.97W
Wx Zone: ILZ014
Local Info
Past Weather Observations for Today

NOTE: This archive is for the closest National Weather Service station to Elk Grove Village. Information may differ from the station used for current weather conditions.

Click here for Long-term Archive

Time Weather Temperature Dewpoint Humidity Pressure Winds Precip Visibility
21:51
Partly Cloudy
70°F / 21°C 59°F / 15°C 69% 29.98 in
(1015 mb)
W 3.5 mph
(W 6 kph)
- 10SM
20:51
Partly Cloudy
72°F / 22°C 57°F / 14°C 61% 29.95 in
(1014 mb)
WNW 5.8 mph
(WNW 9 kph)
- 10SM
19:51
Mostly Cloudy
73°F / 23°C 57°F / 14°C 57% 29.92 in
(1013 mb)
NW 4.6 mph
(NW 7 kph)
- 10SM
18:51
Partly Cloudy
73°F / 23°C 57°F / 14°C 57% 29.92 in
(1013 mb)
SSW 5.8 mph
(SSW 9 kph)
- 10SM
17:51
Partly Cloudy
75°F / 24°C 55°F / 13°C 50% 29.89 in
(1012 mb)
SSW 6.9 mph
(SSW 11 kph)
- 10SM
16:51
Partly Cloudy
79°F / 26°C 54°F / 12°C 42% 29.89 in
(1012 mb)
W 11.5 mph
(W 19 kph)
- 10SM
15:51
Partly Cloudy
81°F / 27°C 55°F / 13°C 42% 29.92 in
(1013 mb)
W 10.4 mph
(W 17 kph)
- 10SM
14:51
Partly Cloudy
81°F / 27°C 55°F / 13°C 42% 29.92 in
(1013 mb)
NNW 12.7 mph
(NNW 20 kph)
- 10SM
13:51
Mostly Cloudy
82°F / 28°C 55°F / 13°C 40% 29.92 in
(1013 mb)
NW 12.7 mph
(NW 20 kph)
- 10SM
12:51
Partly Cloudy
81°F / 27°C 55°F / 13°C 42% 29.92 in
(1013 mb)
NW 8.1 mph
(NW 13 kph)
- 10SM
11:51
Mostly Cloudy
81°F / 27°C 55°F / 13°C 42% 29.89 in
(1012 mb)
W 9.2 mph
(W 15 kph)
- 10SM
10:51
Mostly Cloudy
79°F / 26°C 57°F / 14°C 48% 29.92 in
(1013 mb)
SSW 9.2 mph
(SSW 15 kph)
- 10SM
09:51
Mostly Cloudy
75°F / 24°C 59°F / 15°C 57% 29.92 in
(1013 mb)
SSW 4.6 mph
(SSW 7 kph)
- 10SM
08:51
Mostly Cloudy
75°F / 24°C 63°F / 17°C 65% 29.92 in
(1013 mb)
W 3.5 mph
(W 6 kph)
- 10SM
07:51
Mostly Cloudy
72°F / 22°C 63°F / 17°C 73% 29.89 in
(1012 mb)
Calm - 10SM
06:51
Mostly Cloudy
70°F / 21°C 64°F / 18°C 83% 29.89 in
(1012 mb)
Calm - 10SM
05:51
Mostly Cloudy
68°F / 20°C 63°F / 17°C 83% 29.89 in
(1012 mb)
Calm - 10SM
04:51
Mostly Cloudy
68°F / 20°C 63°F / 17°C 83% 29.89 in
(1012 mb)
NW 6.9 mph
(NW 11 kph)
- 10SM
03:51
Overcast
68°F / 20°C 64°F / 18°C 88% 29.89 in
(1012 mb)
W 4.6 mph
(W 7 kph)
- 10SM
02:51
Mostly Cloudy
70°F / 21°C 64°F / 18°C 83% 29.89 in
(1012 mb)
SSW 5.8 mph
(SSW 9 kph)
- 10SM
01:51
Mostly Cloudy
70°F / 21°C 64°F / 18°C 83% 29.89 in
(1012 mb)
SSW 4.6 mph
(SSW 7 kph)
0.01 in
(0.25 mm)
10SM
00:51
Overcast
Light Rain
70°F / 21°C 64°F / 18°C 83% 29.83 in
(1010 mb)
SSW 3.5 mph
(SSW 6 kph)
0.01 in
(0.25 mm)
10SM
Time Weather Temperature Dewpoint Humidity Pressure Winds Precip Visibility


Weather for websites

WeatherForYou.com, LLC is not responsible for any damages or problems caused by this service. Current weather conditions are obtained from the closest station including government and personal stations which may have varying degrees of accuracy. Weather forecasts are derived from the NOAA NDFD. Like all things, this site belongs to Jesus Christ... He just trusts me to maintain it. If you have any questions or comments email webmaster@weatherforyou.com

Copyright © 2014, WeatherForYou.com LLC. All rights reserved.